Location: Bijele Vode
(45.2833°N, 16.2000°E)
Time: 14:08:32
(UTC+00:00)

ATLAS 3B R/B - Pass Details

Date: 18 September 2020
Orbit: 1016 x 1179 km, 63.8° (Epoch: 28 October)

Event Time Altitude Azimuth Distance (km) Brightness Sun altitude
Rises 21:23:30 0° 320° (NW) 3,845 6.5 -39.6°
Reaches altitude 10° 21:26:09 10° 316° (NW) 2,908 5.6 -39.8°
Enters shadow 21:30:03 35° 300° (WNW) 1,681 3.9 -40.1°
